798 Art Zone, China

7:10 AM CST on November 19, 2017 (GMT +0800)
International School of Beijing | | Change Station

Elev 95 ft 40.08 °N, 116.52 °E | Updated 26 seconds ago

Clear
Clear
27.0 °F
Feels Like 27 °F
N
3.0
Wind Variable Wind from NNE
Gusts 3.0 mph

Today
High -- | Low -- °F
--% Chance of Precip.
Yesterday
High -- | Low -- °F
Precip. -- in
Pressure 30.39 in
Visibility -9999.0 miles
Clouds
Windchill 27 °F
Dew Point 10 °F
Humidity 48%
Rainfall 0.00 in
Snow Depth Not available.
7:03 AM 4:54 PM
New Moon, 0% visible
METAR ZBAA 182300Z 36004MPS CAVOK M05/M10 Q1029 NOSIG
Pressure 30.39 in
Visibility -9999.0 miles
Clouds
Windchill 27 °F
Dew Point 10 °F
Humidity 48%
Rainfall 0.00 in
Snow Depth Not available.
7:03 AM 4:54 PM
New Moon, 0% visible
METAR ZBAA 182300Z 36004MPS CAVOK M05/M10 Q1029 NOSIG

Get Severe Weather Alerts

Thanks for signing up!

Be on the lookout for a verification email in your inbox.

You'll start receiving the daily forecast at 6 AM.

×

10-Day Weather Forecast

No radar image for this location.
×

Almanac

Astronomy

Nov. 19, 2017 Rise Set
Actual Time
Civil Twilight
Nautical Twilight
Astronomical Twilight
Moon
Length of Visible Light
Length of Day
Tomorrow will be .
, % of the Moon is Illuminated

Today's Extremes

Country Highs Country Lows

Community

WunderPhotos

Category 6

Welcome to Category 6. This is the collective home for Weather Underground's featured writeups by Dr. Jeff Masters (right), Bob Henson (left), Chris Burt, and other regular contributors.

Nearby

Air Quality

  Air Quality AQ Index Pollutant
Not available.

Snow Depth

Station Depth Elevation

Earthquake Activity

City Distance Mag. Time & Date
Minimum magnitude displayed is 2.5.

Coastal Water Temperatures

Place Temperature

Stations

Nearby Weather Stations

Station Location Temp. Windchill Dew Point Humidity Wind Precip. Elev Updated Type